Regional Weather Roundup
Issued by NWS Green Bay, WI

Home | Current Version | Previous Version | Text Only | Print | Product List | Glossary On
Versions: 1 2 3 4 5 6 7 8 9 10 11 12 13 14 15 16 17 18 19 20 21 22 23 24 25 26 27 28 29 30 31 32 33 34 35 36 37 38 39 40 41 42 43 44 45 46 47 48 49 50
000
ASUS43 KGRB 300500
RWRGRB

NORTH-CENTRAL AND NORTHEAST WISCONSIN REGIONAL WEATHER ROUNDUP
NATIONAL WEATHER SERVICE GREEN BAY WI
1200 AM CDT MON MAY 30 2016

WIZ005-009-010>012-018-019-300600-
NORTH CENTRAL WISCONSIN

CITY           SKY/WX    TMP DP  RH WIND       PRES   REMARKS
IRONWOOD       CLEAR     52  52 100 SW3       29.91S
MANITOWISH WTR NOT AVBL
ARBOR VITAE    NOT AVBL
EAGLE RIVER    NOT AVBL
LAND O LAKES   NOT AVBL
RHINELANDER    CLEAR     53  52  96 W5        29.97R FOG
PHILLIPS       CLEAR     53  53 100 CALM      29.96S
ANTIGO         NOT AVBL
TOMAHAWK       NOT AVBL
MERRILL        PTCLDY    57  57 100 CALM      29.97R
$$

WIZ013-073-300600-
NORTHEAST WISCONSIN

CITY           SKY/WX    TMP DP  RH WIND       PRES   REMARKS
IRON MOUNTAIN  CLEAR     60  55  83 W6        29.90S
MARINETTE      PTCLDY    59  57  94 CALM      29.94R
$$

WIZ017-030-035>037-045-300600-
CENTRAL WISCONSIN

CITY           SKY/WX    TMP DP  RH WIND       PRES   REMARKS
MEDFORD        NOT AVBL
WAUSAU         MOCLDY    60  56  86 CALM      29.96R
MOSINEE        NOT AVBL
MARSHFIELD     MOCLDY    62  55  77 CALM      29.97S
WISC RAPIDS    CLEAR     59  55  87 W6        29.99R
STEVENS POINT  NOT AVBL
WAUPACA        CLEAR     60  59  94 CALM      29.97R
SHAWANO        PTCLDY    64  57  78 CALM      29.95R
CLINTONVILLE   NOT AVBL
WAUTOMA        CLEAR     58  56  93 CALM      29.99R
$$

WIZ038-039-048-051-300600-
FOX VALLEY

CITY           SKY/WX    TMP DP  RH WIND       PRES   REMARKS
NWS GREEN BAY  CLEAR     66  57  72 W6        29.95R
APPLETON       NOT AVBL
OSHKOSH        CLEAR     65  57  75 W5        29.97R
FOND DU LAC    PTCLDY    64  58  80 W5        29.98R
$$

WIZ022-050-052-300600-
EAST CENTRAL WISCONSIN

CITY           SKY/WX    TMP DP  RH WIND       PRES   REMARKS
EPHRAIM        NOT AVBL
STURGEON BAY   NOT AVBL
MANITOWOC      NOT AVBL
SHEBOYGAN      CLEAR     63  57  81 W5        29.96R
$$

LMZ563-521-522-541>543-300600-
LAKESHORE

STATION/POSITION TIME  TEMP    WIND        PRES    VSBY  WAVE
                       AIR SEA DIR/SP/G                  HT/PER
                 (UTC) (F)     (DEG/KT/KT) (MB)    (MI)  (FT/S)
SHEBOYGAN LKSHOR 0400   69     250/  6/  7 1014.3R
KEWAUNEE LKSHORE 0400   67     300/  3/  5 1013.0
NORTHPORT PIER   0400   63     270/  4/  7 1012.9R
N MID LAKE BUOY  0350   55 47  250/ 10/ 10 1012.1R         2/ 5
CHAMBERS ISLAND  0440   63     240/  3/  5 1013.2R
MENOMINEE LKSHOR 0400   67     280/  3/  5 1012.3
$$




USA.gov is the U.S. government's official web portal to all federal, state and local government web resources and services.